Погода в Паневежисе

Поиск расширенной информации на нашем сайте:

Полезная информация:

Новости сайта



02.01.2020
Опубликован Долгосрочный прогноз погоды по городам России и ближнего зарубежья на январь 2020 года.
Карты: Прогноз на январь и февраль 2020 года, Сравнение прогнозируемой аномалии приземной температуры воздуха на январь 2020 года по разным моделям.




Погода в Паневежисе - сегодня

Время (UTC), дата Ветер
(°,м/с) 
Видим.   Явления Облачность Т
(°С)
Тd
(°С)
f(%) Тe
(°С)
Pmin
(гПа)
dP
(гПа)
Po
(мм)
O2
(г/м3)
Тmin Tmax R s Состояние
почвы
03 05.03.21 290 (З) 2-4{05}  20000 м    ясно 
-3.6 -5.8 85 -5  1014.2  0.4  755  309           
06 05.03.21 320 (СЗ) 4-5{06}  20000 м    ясно <0100 м 
-3.4 -7 76 -6  1015.8  1.6  756  309  -3.9         
09 05.03.21 340 (С) 5-8{10}  20000 м    ясно <0100 м 
-0.6 -10 49 -4  1017.4  1.7  758  307           
12 05.03.21 320 (СЗ) 4-7{09}  20000 м    5/5 1500 м 
+0.7 -10.8 42 -2  1017.8  0.4  758  306           
15 05.03.21 280 (З) 5-10{10}  19000 м  слаб. ливневой снег  9/9 1000 м 
+0.3 -8.9 50 -3  1017.8  758  306           
18 05.03.21 310 (СЗ) 4-7{10}  20000 м    9/9 600 м 
-1.6 -4.5 81 -4  1019.2  1.4  759  308    +1.9       
21 05.03.21 330 (СЗ) 4-8{08}  20000 м    ясно <0100 м 
-3.5 -6.6 79 -6  1021.5  2.2  761  311           
00 06.03.21 310 (СЗ) 2-4{08}  17000 м    ясно <0100 м 
-5.1 -6.8 88 -6  1023.2  1.6  762  314           
03 06.03.21 280 (З) 1-3{04}  19000 м    ясно <0100 м 
-6.3 -7.7 90 -6  1023.6  0.4  762  315           
06 06.03.21 250 (З) 1-3{03}  18000 м    ясно <0100 м 
-6.1 -7.6 89 -6  1024.3  0.7  763  315  -7.7         
09 06.03.21 240 (ЮЗ) 4-6{06}  20000 м    ясно 
-0.9 -6.1 68 -3  1023.5  -0.7  762  309           
12 06.03.21 240 (ЮЗ) 7-11{11}  20000 м    6/6 600 м 
+1.6 -5.3 60 -2  1020.8  -2.6  760  305           
15 06.03.21 240 (ЮЗ) 7-11{13}  20000 м  в посл. час дождь  9/9 1000 м 
+1.9 -5.5 58 -2  1017.7  -3  758  304           
18 06.03.21 230 (ЮЗ) 7-11{13}  20000 м    10/0 
+1.3 -5.6 60 -2  1014.7  -3  756  304    +2.5       
21 06.03.21 240 (ЮЗ) 7-12{14}  13000 м  слаб. морось  10/10 300 м 
+1.2 -2.4 77 -2  1010.2  -4.5  752  302           
00 07.03.21 240 (ЮЗ) 6-10{12}  20000 м    10/10 600 м 
+1.5 -0.7 85 -2  1005.8  -4.4  749  300      0.0     
03 07.03.21 250 (З) 7-11{11}  16000 м  слаб. ливневой дождь  10/10 300 м 
+2.1 -0.2 85 -1  1002.5  -3.2  746  298           
06 07.03.21 тихо () -0{11}  2500 м  слаб. снег  10/10 200 м 
-1.1 -1.9 94 -1  1003.4  0.8  747  302  -1.2       
09 07.03.21 280 (З) 5-10{10}  20000 м    9/0 
+0.3 -3.7 74 -3  1004.1  0.7  748  301           
12 07.03.21 280 (З) 7-12{13}  20000 м    ясно 
+2 -7.4 50 -1  1003.7  -0.3  747  300         
15 07.03.21 280 (З) 5-8{15}  20000 м    1/0 
+0.6 -5.9 62 -2  1004.2  0.4  748  301           
18 07.03.21 290 (З) 4-6{10}  20000 м    ясно 
-1.4 -7.7 62 -4  1005.4  1.2  749  304    +2.4     
21 07.03.21 280 (З) 5-8{09}  18000 м  слаб. ливневой снег  9/9 600 м 
-1.9 -7.6 65 -5  1005.6  0.1  749  305           
00 08.03.21 330 (СЗ) 6-10{13}  20000 м  слаб. ливневой снег  9/0 2000 м 
-2.8 -5.3 83 -7  1006.5  0.9  749  306      0.0     
03 08.03.21 320 (СЗ) 5-9{11}  19000 м  слаб. ливневой снег  9/0 
-4.4 -6.9 83 -8  1008.9  2.4  751  308      0.0   
Время (UTC), дата Ветер
(°,м/с) 
Видим.   Явления Облачность Т
(°С)
Тd
(°С)
f(%) Тe
(°С)
Pmin
(гПа)
dP
(гПа)
Po
(мм)
O2
(г/м3)
Тmin Tmax R s Состояние
почвы

Для получения пояснительной информации подведите курсор к названию столбца.

ПОГОДА в Паневежисе - архив

Всё, что Вы хотите узнать о погоде в Паневежисе - удобно и подробно!

Выберите нужную дату (начиная с 1 января 2019* года) и нажмите кнопку "Найти".
Будут отображены архивные сводки погоды по пункту Паневежис, начиная с указанной даты.


Отображать данные в формате CSV (для использования в таблицах Excel)


Внимание! Наш архив погоды предназначен исключительно для личного некоммерческого использования в познавательных целях. Если Вам необходимы официальные справки о состоянии погоды (для производственных, юридических, коммерческих и т.п. целей), обращайтесь в органы Росгидромета.

*Примечание: данная дата относится к архиву по метеостанциям СССР (Россия, СНГ, Балтия).
Архив по метеостанциям Зарубежной Европы и Азии (кроме Китая) хранится 10 дней, по другим регионам земного шара (Китай, Африка, Америка, Австралия, Океания) - 1 день.

Паневежис - район местоположения метеостанции


Название, широта, долгота, высота метеостанции:
Паневежис 55.8°ш. 24.4°д. 58 м над ур. моря [Литва]

Дополнительная информация

В oтличие oт бoльшинства пoгoдных сайтoв мы публикуем пoдрoбную метеoинфoрмацию в детальнoм прoфессиoнальнoм фoрмате.

Характеристики температуры и влажнoсти вoздуха измеряются на высoте 2 м в тени вдали oт зданий и деревьев.
Скoрoсть ветра измеряется на высoте 10 м (на урoвне рoста челoвека скoрoсть ветра ниже в 1.5-2 раза). Если метеoстанция нахoдится в гoрoде или в лесу, тo скoрoсть ветра занижена на 2-4 м/с пo сравнению с oткрытым местoм. Скoрoсть ветра над акватoриями крупных рек и oзёр, а также на вершинах хoлмoв на 2-5 м/с выше, чем в oбычных услoвиях.
Атмoсфернoе давление в разных тoчках местнoсти мoжет значительнo oтличаться oт давления на метеoстанции, в зависимoсти oт услoвий рельефа (при пoдъёме на 10 м давление пoнижается примернo на 1 мм рт.ст.).